GEFSMA_con_cape1000_000.txt.gz
Probability
94 90 87 77 97 100 100 100 94 90 90 81 23 6 32 13 39 87 97 100 100 100 100 100 100 100 100 100 100 100 100 100 100 100 100 100 100 100 100 71 84 71 48
94 100 97 87 71 81 90 97 94 84 81 87 81 55 23 3 55 94 94 94 97 100 100 100 100 100 100 100 100 100 100 100 100 100 100 100 100 100 100 94 81 48 23
94 100 100 97 55 6 6 13 58 29 32 35 26 26 10 16 71 84 71 71 90 100 100 100 100 100 100 100 100 100 100 100 100 100 100 100 100 100 97 97 100 81 48
100 100 100 87 52 16 39 71 55 42 13 6 6 0 0 0 0 13 10 19 74 94 100 100 100 100 100 100 100 100 100 100 100 100 100 100 100 90 52 68 77 71 55
100 100 100 94 58 48 84 65 29 13 6 0 0 0 0 0 0 3 0 3 29 84 100 100 100 100 100 100 100 100 100 100 100 100 100 100 100 97 19 3 23 39 23
97 97 97 84 61 77 90 48 29 0 0 0 0 0 0 0 0 0 0 0 0 16 77 100 100 100 100 100 100 100 100 100 100 100 100 100 100 100 19 3 3 3 3
81 65 77 74 71 90 90 45 10 3 0 0 0 0 0 0 0 0 0 0 0 0 13 39 39 90 100 100 100 100 100 100 100 100 100 100 100 100 74 6 3 3 3
68 61 3 26 45 32 29 52 26 6 0 0 0 0 0 0 0 0 0 0 0 0 0 0 0 61 71 35 3 52 94 100 100 100 100 100 100 100 94 6 0 0 0
29 77 52 10 10 3 10 6 35 35 16 0 0 0 0 0 0 0 0 0 0 0 0 0 0 10 16 0 0 19 97 100 97 97 100 97 87 90 68 6 0 0 0
0 26 58 55 29 3 0 0 3 19 16 6 0 0 0 0 0 0 0 0 0 0 0 0 0 0 0 0 0 0 13 13 48 55 100 100 87 23 13 10 6 3 0
0 0 0 0 10 6 0 0 0 0 0 3 0 0 0 0 0 0 0 0 0 0 0 0 0 0 0 0 0 0 0 0 0 0 10 71 81 26 0 3 10 32 65
0 0 0 0 0 0 0 0 0 0 0 0 0 0 0 0 0 0 0 0 0 0 0 0 0 0 0 0 0 0 0 0 0 0 0 0 0 0 0 0 0 68 77
0 0 0 0 0 0 0 0 0 0 0 0 0 0 0 0 0 0 0 0 0 0 0 0 0 0 0 0 0 0 0 0 0 0 0 0 0 0 0 0 0 10 39
0 0 0 0 0 0 0 0 0 0 0 0 0 0 0 0 0 0 0 0 0 0 0 0 0 0 0 0 0 0 0 0 0 0 0 0 0 0 0 0 0 0 0
0 0 0 0 0 0 0 0 0 0 0 0 0 0 0 0 0 0 0 0 0 0 0 0 0 0 0 0 0 0 0 0 0 0 0 0 0 0 0 0 0 0 0
0 0 0 0 0 0 0 0 0 0 0 0 0 0 0 0 0 0 0 0 0 0 0 0 0 0 0 0 0 0 0 0 0 0 0 0 0 0 0 0 0 0 0
0 0 0 0 0 0 0 0 0 0 0 0 0 0 0 0 0 0 0 0 0 0 0 0 0 0 0 0 0 0 0 0 0 0 0 0 0 0 0 0 0 0 0
0 0 0 0 0 0 0 0 0 0 0 0 0 0 0 0 0 0 0 0 0 0 0 0 0 0 0 0 0 0 0 0 0 0 0 0 0 0 0 0 0 0 0
0 0 0 0 0 0 0 0 0 0 0 0 0 0 0 0 0 0 0 0 0 0 0 0 0 0 0 0 0 0 0 0 0 0 0 0 0 0 0 0 0 0 0
0 0 0 0 0 0 0 0 0 0 0 0 0 0 0 0 0 0 0 0 0 0 0 0 0 0 0 0 0 0 0 0 0 0 0 0 0 0 0 0 0 0 0
0 0 0 0 0 0 0 0 0 0 0 0 0 0 0 0 0 0 0 0 0 0 0 0 0 0 0 0 0 0 0 0 0 0 0 0 0 0 0 0 0 0 0
0 0 0 0 0 0 0 0 0 0 0 0 0 0 0 0 0 0 0 0 0 0 0 0 0 0 0 0 0 0 0 0 0 0 0 0 0 0 0 0 0 0 0
0 0 0 0 0 0 0 0 0 0 0 0 0 0 0 0 0 0 0 0 0 0 0 0 0 0 0 0 0 0 0 0 0 0 0 0 0 0 0 0 0 0 0
0 0 0 0 0 0 0 0 0 0 0 0 0 0 0 0 0 0 0 0 0 0 0 0 0 0 0 0 0 0 0 0 0 0 0 0 0 0 0 0 0 0 0
0 0 0 0 0 0 0 0 0 0 0 0 0 0 0 0 0 0 0 0 0 0 0 0 0 0 0 0 0 0 0 0 0 0 0 0 0 0 0 0 0 0 0
0 0 0 0 0 0 0 0 0 0 0 0 0 0 0 0 0 0 0 0 0 0 0 0 0 0 0 0 0 0 0 0 0 0 0 0 0 0 0 0 0 0 0

GEFSMA_con_cape1000_006.txt.gz
Probability
94 65 74 90 97 100 100 100 100 100 100 100 100 100 100 100 84 39 35 94 100 100 100 100 100 100 100 100 100 100 100 100 100 100 100 100 100 100 100 94 42 3 0
100 94 87 90 90 100 100 100 97 100 100 100 100 100 100 100 84 65 48 74 100 100 100 100 100 100 100 100 100 100 100 100 100 100 100 100 100 100 100 97 77 10 0
94 81 71 74 97 100 94 90 97 94 90 84 90 94 97 100 97 84 77 77 90 100 100 100 100 100 100 100 100 100 100 100 100 100 100 100 100 100 100 97 94 42 3
68 65 84 90 90 100 87 77 77 61 61 68 77 81 87 97 97 97 97 94 90 84 97 100 100 100 100 100 100 100 100 100 100 100 100 100 100 94 39 26 45 10 3
74 74 81 94 94 97 94 71 61 45 35 26 19 45 48 35 42 29 32 32 45 55 48 48 90 100 100 100 100 100 100 100 100 100 100 100 100 90 26 10 10 6 3
42 23 42 48 71 71 87 77 61 39 3 3 3 6 10 13 6 3 6 6 13 16 16 23 48 65 97 100 100 100 100 100 100 100 100 100 100 100 71 23 6 6 3
3 3 0 0 3 10 29 55 55 29 13 0 0 0 0 0 0 3 3 0 0 3 3 3 3 6 10 13 23 81 97 100 100 100 100 100 100 100 100 55 16 3 0
0 0 0 0 0 0 3 6 19 10 3 0 3 0 0 0 0 0 0 0 0 0 0 0 0 0 0 0 0 0 52 84 100 100 100 94 84 87 84 65 19 0 0
0 0 0 0 0 0 0 0 0 0 0 0 0 0 0 0 0 0 0 0 0 0 0 0 0 0 0 0 6 0 3 16 94 100 100 81 13 3 6 35 19 3 0
0 0 0 0 0 0 0 0 0 0 6 3 0 0 0 0 0 0 0 0 0 0 0 0 0 0 0 3 0 0 0 0 6 16 29 45 26 0 0 3 13 6 0
0 0 0 0 0 0 0 0 0 0 6 6 0 0 0 0 0 0 0 0 0 0 0 0 0 0 0 0 0 0 0 0 0 0 0 0 0 6 0 0 13 32 6
0 0 0 0 0 0 0 0 0 0 0 3 3 0 0 0 0 0 0 0 0 0 0 0 0 0 0 0 0 0 0 0 0 0 0 0 0 0 0 0 10 26 23
0 0 0 0 0 0 0 0 0 0 0 0 0 0 3 0 0 0 0 0 0 0 0 0 0 0 0 0 0 0 0 0 0 0 0 0 0 0 0 0 0 0 3
0 0 0 0 0 0 0 0 0 0 0 0 0 0 0 0 0 0 0 0 0 0 0 0 0 0 0 0 0 0 0 0 0 0 0 0 0 0 0 0 0 0 0
0 0 0 0 0 0 0 0 0 0 0 0 0 0 0 0 0 0 0 0 0 0 0 0 0 0 0 0 0 0 0 0 0 0 0 0 0 0 0 0 0 0 0
0 0 0 0 0 0 0 0 0 0 0 0 0 0 0 0 0 0 0 0 0 0 0 0 0 0 0 0 0 0 0 0 0 0 0 0 0 0 0 0 0 0 0
0 0 0 0 0 0 0 0 0 0 0 0 0 0 0 0 0 0 0 0 0 0 0 0 0 0 0 0 0 0 0 0 0 0 0 0 0 0 0 0 0 0 0
0 0 0 0 0 0 0 0 0 0 0 0 0 0 0 0 0 0 0 0 0 0 0 0 0 0 0 0 0 0 0 0 0 0 0 0 0 0 0 0 0 0 0
0 0 0 0 0 0 0 0 0 0 0 0 0 0 0 0 0 0 0 0 0 0 0 0 0 0 0 0 0 0 0 0 0 0 0 0 0 0 0 0 0 0 0
0 0 0 0 0 0 0 0 0 0 0 0 0 0 0 0 0 0 0 0 0 0 0 0 0 0 0 0 0 0 0 0 0 0 0 0 0 0 0 0 0 0 0
0 0 0 0 0 0 0 0 0 0 0 0 0 0 0 0 0 0 0 0 0 0 0 0 0 0 0 0 0 0 0 0 0 0 0 0 0 0 0 0 0 0 0
0 0 0 0 0 0 0 0 0 0 0 0 0 0 0 0 0 0 0 0 0 0 0 0 0 0 0 0 0 0 0 0 0 0 0 0 0 0 0 0 0 0 0
0 0 0 0 0 0 0 0 0 0 0 0 0 0 0 0 0 0 0 0 0 0 0 0 0 0 0 0 0 0 0 0 0 0 0 0 0 0 0 0 0 0 0
0 0 0 0 0 0 0 0 0 0 0 0 0 0 0 0 0 0 0 0 0 0 0 0 0 0 0 0 0 0 0 0 0 0 0 0 0 0 0 0 0 0 0
0 0 0 0 0 0 0 0 0 0 0 0 0 0 0 0 0 0 0 0 0 0 0 0 0 0 0 0 0 0 0 0 0 0 0 0 0 0 0 0 0 0 0
0 0 0 0 0 0 0 0 0 0 0 0 0 0 0 0 0 0 0 0 0 0 0 0 0 0 0 0 0 0 0 0 0 0 0 0 0 0 0 0 0 0 0

GEFSMA_con_cape1000_012.txt.gz
Probability
100 100 100 100 100 100 100 100 100 100 100 100 100 94 94 100 100 100 100 100 100 100 100 100 100 100 100 100 100 100 100 100 100 100 100 100 100 100 100 97 97 97 74
100 100 100 100 100 100 100 100 100 100 100 100 100 97 90 84 81 97 100 100 100 100 100 100 100 100 100 100 100 100 100 100 100 100 100 100 97 100 100 100 97 94 39
100 100 97 97 100 100 100 100 100 100 100 97 90 94 87 77 68 74 84 97 97 100 100 100 100 100 100 100 100 100 100 100 100 100 100 100 100 97 100 100 100 74 13
100 100 100 100 100 97 100 100 100 100 100 100 94 77 68 65 61 65 68 84 94 90 100 100 100 100 100 100 100 100 100 100 100 100 100 100 100 100 97 90 97 81 23
84 90 94 97 90 84 84 90 90 97 97 100 100 97 81 81 74 65 68 77 81 97 94 100 100 100 100 100 100 100 100 100 100 100 100 100 100 100 97 65 84 77 42
32 26 23 26 26 26 29 42 58 77 87 90 87 97 94 97 90 87 90 84 87 90 97 97 100 100 100 100 100 100 100 100 100 100 100 100 100 100 97 65 45 52 35
3 13 0 3 10 3 13 16 6 3 16 35 58 55 65 84 100 97 97 94 87 90 90 97 97 94 97 97 90 100 100 100 100 100 100 100 100 97 97 77 45 10 13
3 0 0 0 0 3 3 3 6 0 0 0 13 13 10 19 84 84 100 94 90 84 77 68 71 97 94 68 35 68 94 97 97 97 100 97 87 81 74 55 32 3 0
3 0 0 0 0 0 0 0 13 3 0 0 0 6 0 0 3 29 87 87 87 90 65 35 32 68 90 87 81 3 77 74 61 77 94 87 77 32 19 16 19 6 0
0 0 0 0 3 0 0 0 0 10 26 16 26 58 39 0 3 3 35 58 68 94 65 23 6 35 65 71 74 16 19 29 29 39 45 55 52 16 0 0 23 48 6
0 0 0 0 10 10 6 3 13 29 26 29 39 42 52 77 39 3 3 13 48 58 61 84 61 35 39 52 71 13 10 3 0 3 3 13 16 10 0 6 55 87 87
3 0 0 0 3 3 6 10 10 16 48 58 61 55 52 45 35 10 0 6 29 48 68 84 61 52 61 58 10 0 0 0 0 0 0 0 0 0 0 16 35 58 77
0 0 0 0 0 6 3 3 6 13 23 52 68 74 74 61 68 52 35 29 48 71 94 90 77 68 45 61 19 0 0 0 0 0 0 0 0 0 0 0 0 3 10
0 0 0 0 0 3 3 3 3 6 6 35 29 71 81 71 74 77 74 74 81 90 97 84 71 65 45 32 0 0 0 0 0 0 0 0 0 0 0 0 0 0 0
0 0 0 0 0 3 3 3 6 6 19 23 26 55 61 68 71 71 81 90 84 81 90 74 39 19 32 10 0 0 0 0 0 0 0 0 0 0 0 0 0 0 0
16 3 0 0 3 3 3 6 6 6 19 32 48 58 68 68 68 77 81 84 84 90 81 52 19 0 0 0 0 0 0 0 0 0 0 0 0 0 0 0 0 0 0
19 10 0 0 0 0 3 3 0 0 3 6 13 13 39 55 58 61 77 84 84 90 74 0 0 0 0 0 0 0 0 0 0 0 0 0 0 0 0 0 0 0 0
42 10 0 0 0 0 0 0 0 0 0 0 3 6 6 23 45 61 68 68 74 81 29 0 0 0 0 0 0 0 0 0 0 0 0 0 0 0 0 0 0 0 0
52 13 0 0 0 0 0 0 0 0 0 0 0 3 3 3 26 35 42 39 23 13 13 0 0 0 0 0 0 0 0 0 0 0 0 0 0 0 0 0 0 0 0
39 42 6 0 0 0 0 0 0 0 0 0 0 0 0 0 3 3 3 0 0 3 3 3 0 0 0 0 0 0 0 0 0 0 0 0 0 0 0 0 0 0 0
3 26 16 0 0 0 0 0 0 0 0 0 0 0 0 0 0 0 0 0 0 0 0 0 0 0 0 0 0 0 0 0 0 0 0 0 0 0 0 0 0 0 0
10 10 3 0 0 0 0 0 0 0 0 0 0 0 0 0 0 0 0 0 0 0 0 0 0 0 0 0 0 0 0 0 0 0 0 0 0 0 0 0 0 0 0
0 6 6 0 0 0 0 0 0 0 0 0 0 0 0 0 0 0 0 0 0 0 0 0 0 0 0 0 0 0 0 0 0 0 0 0 0 0 0 0 0 0 0
0 0 3 0 0 0 0 0 0 0 0 0 0 0 0 0 0 0 0 0 0 0 0 0 0 0 0 0 0 0 0 0 0 0 0 0 0 0 0 0 0 0 0
0 0 0 0 0 0 0 0 0 0 0 0 0 0 0 0 0 0 0 0 0 0 0 0 0 0 0 0 0 0 0 0 0 0 0 0 0 0 0 0 0 0 0
0 0 0 0 0 0 0 0 0 0 0 0 0 0 0 0 0 0 0 0 0 0 0 0 0 0 0 0 0 0 0 0 0 0 0 0 0 0 0 0 0 0 0

GEFSMA_con_cape1000_018.txt.gz
Probability
100 97 97 100 100 100 100 100 97 100 97 87 77 77 84 81 87 94 94 87 94 97 94 100 100 100 100 100 100 100 100 100 100 100 100 100 100 100 97 97 97 97 97
100 100 100 100 100 97 97 97 94 94 90 84 74 74 77 74 74 74 74 81 90 94 94 94 97 100 100 100 100 100 100 100 100 100 100 100 100 100 100 97 94 94 81
100 100 100 100 94 94 94 97 97 97 90 81 74 81 81 77 77 71 71 68 71 84 90 94 94 100 100 100 100 100 100 100 100 100 100 100 97 100 100 94 94 81 48
100 100 100 100 97 97 97 94 94 97 97 94 87 87 87 87 74 71 65 61 52 42 71 94 94 94 97 100 100 100 100 100 100 100 100 100 100 90 58 45 58 42 29
87 87 94 90 90 90 94 77 90 97 90 90 87 87 87 84 84 77 65 61 55 48 55 61 94 94 97 100 100 100 100 100 100 100 100 100 100 100 68 23 19 26 16
61 65 61 81 45 39 52 68 71 61 74 74 39 39 61 74 71 68 71 65 71 55 52 52 71 81 97 100 100 100 100 100 100 100 100 100 100 100 84 29 3 0 3
32 32 58 52 35 42 68 26 32 26 35 45 32 23 26 32 42 65 68 74 74 68 65 71 77 68 77 97 97 97 100 100 100 100 100 100 100 100 97 68 16 0 0
58 16 74 42 45 68 35 61 71 81 32 32 35 10 3 10 35 29 58 71 84 90 87 77 81 87 84 97 94 97 97 100 100 100 100 100 100 100 100 84 45 0 0
68 61 35 42 58 55 55 84 84 71 48 55 39 19 0 0 13 32 61 61 87 97 97 97 97 87 87 90 94 90 97 97 100 100 100 100 100 97 97 90 77 23 0
74 58 48 26 45 61 74 68 74 84 77 48 58 65 26 13 6 3 13 29 68 84 97 94 84 74 87 81 71 74 94 100 100 94 94 90 87 87 81 74 90 77 26
90 77 61 32 52 58 65 65 74 77 65 55 45 42 26 26 19 13 0 16 39 77 94 100 90 84 77 87 68 48 55 52 55 58 61 68 68 81 77 74 81 81 68
97 81 45 45 26 35 52 58 65 55 55 68 68 35 23 23 29 19 16 19 13 45 77 90 97 90 87 58 42 23 26 23 23 23 19 23 16 23 29 45 55 55 55
97 90 39 39 35 45 48 61 68 61 61 65 65 52 39 35 32 26 19 6 13 48 87 100 97 87 71 42 19 16 6 3 3 3 3 0 0 0 0 0 6 10 19
94 81 48 45 48 45 29 52 52 45 45 58 29 48 39 23 39 35 19 16 3 19 61 74 97 90 77 39 6 0 0 0 0 0 0 0 0 0 0 0 0 0 0
84 77 71 68 61 55 61 52 26 48 48 45 29 29 39 39 45 45 35 26 10 6 29 71 77 77 42 16 0 0 0 0 0 0 0 0 0 0 0 0 0 0 0
58 71 81 84 77 61 65 74 48 48 52 42 45 55 39 32 39 52 55 52 39 19 29 61 55 45 23 6 0 0 0 0 0 0 0 0 0 0 0 0 0 0 0
13 32 45 58 65 61 74 87 52 45 32 32 29 16 26 26 35 42 52 48 55 39 16 16 19 19 13 0 0 0 0 0 0 0 0 0 0 0 0 0 0 0 0
0 3 16 23 10 13 45 52 29 13 13 13 10 10 3 6 6 10 26 42 52 55 10 0 0 3 0 0 0 0 0 0 0 0 0 0 0 0 0 0 0 0 0
0 0 0 6 6 0 6 39 23 19 13 13 6 6 3 6 6 6 16 29 39 16 3 0 0 0 0 0 0 0 0 0 0 0 0 0 0 0 0 0 0 0 0
0 0 0 0 0 0 0 3 10 6 3 3 0 0 0 0 3 6 6 16 23 0 0 0 0 0 0 0 0 0 0 0 0 0 0 0 0 0 0 0 0 0 0
0 0 0 0 0 0 0 0 0 0 3 0 0 0 0 0 0 0 0 0 0 0 0 0 0 0 0 0 0 0 0 0 0 0 0 0 0 0 0 0 0 0 0
0 0 0 0 0 0 0 0 0 0 3 3 0 0 0 0 0 0 0 0 0 0 0 0 0 0 0 0 0 0 0 0 0 0 0 0 0 0 0 0 0 0 0
0 0 0 0 0 0 0 0 0 0 0 0 0 0 0 0 0 0 0 0 0 0 0 0 0 0 0 0 0 0 0 0 0 0 0 0 0 0 0 0 0 0 0
0 0 0 0 0 0 0 0 0 0 0 0 0 0 0 0 0 0 0 0 0 0 0 0 0 0 0 0 0 0 0 0 0 0 0 0 0 0 0 0 0 0 0
0 0 0 0 0 0 0 0 0 0 0 0 0 0 0 0 0 0 0 0 0 0 0 0 0 0 0 0 0 0 0 0 0 0 0 0 0 0 0 0 0 0 0
3 0 0 0 0 0 0 0 0 0 0 0 0 0 0 0 0 0 0 0 0 0 0 0 0 0 0 0 0 0 0 0 0 0 0 0 0 0 0 0 0 0 0

GEFSMA_con_cape1000_024.txt.gz
Probability
90 87 81 71 77 81 87 84 77 74 74 71 68 71 68 58 55 65 55 71 68 74 71 77 74 77 84 94 97 100 100 100 100 100 100 100 100 100 100 100 94 87 77
87 90 55 45 39 45 32 45 48 48 48 48 52 48 35 35 39 48 42 48 68 71 68 71 74 77 87 94 97 100 100 100 100 100 100 100 100 100 100 100 100 87 68
84 65 42 35 35 26 23 16 13 13 10 13 13 19 19 23 26 29 42 35 42 77 74 74 77 81 84 90 97 100 100 100 100 100 100 97 97 97 100 100 100 84 39
87 58 35 26 26 13 6 3 3 3 3 3 0 0 6 3 6 16 19 32 32 32 61 74 84 87 87 90 100 100 100 100 100 100 100 100 100 90 90 90 90 68 16
71 39 23 13 6 3 0 3 0 0 0 0 0 0 0 0 3 6 10 19 29 26 19 42 77 90 87 90 100 100 100 100 100 100 100 100 100 100 81 65 68 52 13
52 19 6 3 0 0 0 0 0 0 0 0 0 0 0 0 0 0 0 3 3 19 32 26 29 61 84 87 94 97 97 100 100 100 100 100 100 100 81 55 42 19 10
10 3 0 0 0 0 0 0 0 0 0 0 0 0 0 0 0 0 0 0 0 6 16 16 19 13 35 77 87 97 97 100 100 100 100 100 100 100 94 71 45 19 10
0 0 0 0 0 0 0 0 0 0 0 0 0 0 0 0 0 0 0 0 0 3 6 6 10 16 19 26 35 61 87 87 90 94 90 87 87 90 90 94 65 19 3
0 0 0 0 0 0 0 0 0 0 0 0 0 0 0 0 0 0 0 0 0 0 0 0 6 16 19 23 29 39 74 74 77 77 77 74 74 68 68 84 87 52 10
0 0 0 0 0 0 0 0 0 0 0 0 0 0 0 0 0 0 0 0 0 0 0 0 0 10 23 19 19 39 52 48 58 58 61 71 58 48 48 65 87 97 61
0 0 0 0 0 0 0 0 0 0 0 0 0 0 0 0 0 0 0 0 0 0 0 0 0 3 3 19 26 26 45 45 39 45 55 55 55 61 58 77 87 90 90
0 0 0 0 0 0 0 0 0 0 0 0 0 0 0 0 0 0 0 0 0 0 0 0 0 3 0 10 32 42 39 23 16 13 16 23 35 45 58 65 77 87 87
0 0 0 0 0 0 0 0 0 0 0 0 0 0 0 0 0 0 0 0 0 0 0 0 0 0 0 0 3 23 16 6 6 3 6 6 13 13 13 23 29 45 55
0 0 0 0 0 0 0 0 0 0 0 0 0 0 0 0 0 0 0 0 0 0 0 0 0 0 0 0 0 0 3 3 0 0 0 0 0 0 0 3 3 0 3
0 0 0 0 0 0 0 0 0 0 0 0 0 0 0 0 0 0 0 0 0 0 0 0 0 0 0 0 0 0 0 0 0 0 0 0 0 0 0 0 0 0 0
0 0 0 0 0 0 0 0 0 0 0 0 0 0 0 0 0 0 0 0 0 0 0 0 0 0 0 0 0 0 0 0 0 0 0 0 0 0 0 0 0 0 0
0 0 0 0 0 0 0 0 0 0 0 0 0 0 0 0 0 0 0 0 0 0 0 0 0 0 0 0 0 0 0 0 0 0 0 0 0 0 0 0 0 0 0
0 0 0 0 0 0 0 0 0 0 0 0 0 0 0 0 0 0 0 0 0 0 0 0 0 0 0 0 0 0 0 0 0 0 0 0 0 0 0 0 0 0 0
0 0 0 0 0 0 0 0 0 0 0 0 0 0 0 0 0 0 0 0 0 0 0 0 0 0 0 0 0 0 0 0 0 0 0 0 0 0 0 0 0 0 0
0 0 0 0 0 0 0 0 0 0 0 0 0 0 0 0 0 0 0 0 0 0 0 0 0 0 0 0 0 0 0 0 0 0 0 0 0 0 0 0 0 0 0
0 0 0 0 0 0 0 0 0 0 0 0 0 0 0 0 0 0 0 0 0 0 0 0 0 0 0 0 0 0 0 0 0 0 0 0 0 0 0 0 0 0 0
0 0 0 0 0 0 0 0 0 0 0 0 0 0 0 0 0 0 0 0 0 0 0 0 0 0 0 0 0 0 0 0 0 0 0 0 0 0 0 0 0 0 0
0 0 0 0 0 0 0 0 0 0 0 0 0 0 0 0 0 0 0 0 0 0 0 0 0 0 0 0 0 0 0 0 0 0 0 0 0 0 0 0 0 0 0
0 0 0 0 0 0 0 0 0 0 0 0 0 0 0 0 0 0 0 0 0 0 0 0 0 0 0 0 0 0 0 0 0 0 0 0 0 0 0 0 0 0 0
0 0 0 0 0 0 0 0 0 0 0 0 0 0 0 0 0 0 0 0 0 0 0 0 0 0 0 0 0 0 0 0 0 0 0 0 0 0 0 0 0 0 0
0 0 0 0 0 0 0 0 0 0 0 0 0 0 0 0 0 0 0 0 0 0 0 0 0 0 0 0 0 0 0 0 0 0 0 0 0 0 0 0 0 0 0

GEFSMA_con_cape1000_030.txt.gz
Probability
94 97 97 90 81 68 77 84 87 87 87 87 81 81 77 77 74 68 65 74 77 81 77 77 81 87 90 94 94 97 97 81 84 87 97 94 100 97 94 90 87 87 87
81 71 61 55 29 35 39 42 45 55 55 55 61 65 68 61 65 61 52 55 74 81 77 74 84 84 87 81 84 84 90 90 90 90 90 94 94 87 94 97 84 74 65
74 61 42 19 19 16 16 13 10 10 16 13 13 23 29 26 32 29 32 39 45 55 77 77 84 81 81 77 84 84 87 84 87 87 90 90 90 90 81 84 90 77 45
68 55 35 19 13 10 6 3 0 3 3 3 0 0 0 3 3 13 16 19 26 29 42 65 77 81 81 84 81 90 87 84 87 87 90 90 90 87 84 74 68 52 10
68 55 26 13 10 3 0 0 0 0 0 0 0 0 0 0 0 0 0 0 6 16 29 23 68 84 81 84 84 87 81 81 84 84 90 94 94 87 71 65 58 42 16
48 32 13 6 3 0 0 0 0 0 0 0 0 0 0 0 0 0 0 0 0 0 6 16 32 45 68 84 87 94 84 84 87 81 84 97 97 97 71 52 42 42 23
32 13 6 3 0 0 0 0 0 0 0 0 0 0 0 0 0 0 0 0 0 0 0 3 13 26 29 55 68 71 84 90 90 87 77 94 97 87 71 55 29 26 19
16 13 3 0 0 0 0 0 0 0 0 0 0 0 0 0 0 0 0 0 0 0 0 0 6 19 23 23 16 48 68 84 94 97 90 84 81 68 58 48 26 16 10
6 3 0 0 0 0 0 0 0 0 0 0 0 0 0 0 0 0 0 0 0 0 0 0 0 0 6 10 19 19 58 87 94 97 94 90 71 52 42 39 32 19 13
0 0 0 0 0 0 0 0 0 0 0 0 0 0 0 0 0 0 0 0 0 0 0 0 0 0 3 10 10 3 23 68 90 97 97 94 74 35 26 23 32 32 26
0 0 0 0 0 0 0 0 0 0 0 0 0 0 0 0 0 0 0 0 0 0 0 0 0 0 0 0 19 19 10 32 68 84 87 81 74 45 23 16 26 35 52
0 0 0 0 0 0 0 0 0 0 0 0 0 0 0 0 0 0 0 0 0 0 0 0 0 0 0 0 0 0 16 13 16 32 55 65 71 48 35 26 26 35 55
0 0 0 0 0 0 0 0 0 0 0 0 0 0 0 0 0 0 0 0 0 0 0 0 0 0 0 0 0 0 26 3 0 3 0 19 26 26 23 29 26 32 39
0 0 0 0 0 0 0 0 0 0 0 0 0 0 0 0 0 0 0 0 0 0 0 0 0 0 0 0 0 0 23 0 0 0 0 0 0 0 3 6 10 6 10
0 0 0 0 0 0 0 0 0 0 0 0 0 0 0 0 0 0 0 0 0 0 0 0 0 0 0 0 0 0 0 0 0 0 0 0 0 0 0 0 3 3 0
0 0 0 0 0 0 0 0 0 0 0 0 0 0 0 0 0 0 0 0 0 0 0 0 0 0 0 0 0 0 0 0 0 0 0 0 0 0 0 0 0 0 0
0 0 0 0 0 0 0 0 0 0 0 0 0 0 0 0 0 0 0 0 0 0 0 0 0 0 0 0 0 0 0 0 0 0 0 0 0 0 0 0 0 0 0
0 0 0 0 0 0 0 0 0 0 0 0 0 0 0 0 0 0 0 0 0 0 0 0 0 0 0 0 0 0 0 0 0 0 0 0 0 0 0 0 0 0 0
0 0 0 0 0 0 0 0 0 0 0 0 0 0 0 0 0 0 0 0 0 0 0 0 0 0 0 0 0 0 0 0 0 0 0 0 0 0 0 0 0 0 0
0 0 0 0 0 0 0 0 0 0 0 0 0 0 0 0 0 0 0 0 0 0 0 0 0 0 0 0 0 0 0 0 0 0 0 0 0 0 0 0 0 0 0
0 0 0 0 0 0 0 0 0 0 0 0 0 0 0 0 0 0 0 0 0 0 0 0 0 0 0 0 0 0 0 0 0 0 0 0 0 0 0 0 0 0 0
0 0 0 0 0 0 0 0 0 0 0 0 0 0 0 0 0 0 0 0 0 0 0 0 0 0 0 0 0 0 0 0 0 0 0 0 0 0 0 0 0 0 0
0 0 0 0 0 0 0 0 0 0 0 0 0 0 0 0 0 0 0 0 0 0 0 0 0 0 0 0 0 0 0 0 0 0 0 0 0 0 0 0 0 0 0
0 0 0 0 0 0 0 0 0 0 0 0 0 0 0 0 0 0 0 0 0 0 0 0 0 0 0 0 0 0 0 0 0 0 0 0 0 0 0 0 0 0 0
0 0 0 0 0 0 0 0 0 0 0 0 0 0 0 0 0 0 0 0 0 0 0 0 0 0 0 0 0 0 0 0 0 0 0 0 0 0 0 0 0 0 0
0 0 0 0 0 0 0 0 0 0 0 0 0 0 0 0 0 0 0 0 0 0 0 0 0 0 0 0 0 0 0 0 0 0 0 0 0 0 0 0 0 0 0

GEFSMA_con_cape1000_036.txt.gz
Probability
90 97 100 100 97 87 100 100 97 100 100 97 94 81 84 81 84 84 84 90 94 94 94 90 84 81 84 87 87 74 74 77 74 68 84 97 100 100 100 97 97 100 97
90 90 94 97 94 94 90 94 87 94 94 97 90 84 81 84 90 84 77 87 94 90 90 90 84 81 74 81 81 77 77 71 61 39 55 81 94 100 100 100 100 100 97
77 84 87 87 90 94 97 97 94 97 100 87 90 90 87 87 84 84 90 94 87 81 87 87 87 87 77 81 74 77 74 71 58 52 39 45 71 84 87 84 90 77 77
55 71 77 81 81 87 94 90 84 84 74 87 84 94 90 97 84 81 87 84 90 71 68 81 77 84 84 74 71 74 65 65 65 58 42 35 42 48 48 48 55 32 19
32 48 61 68 65 71 77 74 65 71 58 65 61 77 74 68 71 61 61 65 71 77 74 81 81 84 77 87 87 81 77 71 68 52 52 45 45 55 32 26 23 6 3
10 23 42 42 45 55 65 61 45 55 48 48 6 10 29 29 35 39 23 26 45 45 45 42 71 55 65 77 87 97 87 77 55 52 52 45 48 52 39 26 16 6 3
16 16 23 35 35 45 48 19 19 16 29 16 16 16 13 13 16 19 16 10 3 6 6 16 35 45 58 48 61 84 94 81 81 58 58 55 58 55 42 35 16 10 10
13 10 26 35 39 48 29 29 23 10 3 3 6 13 6 6 3 0 3 0 0 0 0 0 10 26 23 45 16 48 77 84 87 81 71 68 65 61 58 48 32 13 13
3 13 16 23 35 39 42 55 45 13 3 0 0 0 0 0 0 0 0 0 0 3 3 0 0 3 16 19 45 16 71 81 84 90 94 87 74 52 55 52 52 26 13
0 0 6 13 16 29 35 32 19 29 13 0 0 0 0 0 0 0 0 0 0 0 0 0 0 0 3 16 32 13 32 45 61 77 94 94 81 61 52 52 68 68 42
0 0 3 3 10 19 19 29 42 45 48 13 3 3 0 3 0 0 0 0 0 0 0 0 0 0 3 3 26 19 10 13 35 58 77 94 94 81 74 74 77 81 71
0 0 3 3 3 3 6 19 26 29 61 42 29 3 3 0 0 0 0 0 0 0 0 0 0 3 3 3 6 0 3 3 3 3 42 71 87 94 87 87 84 77 71
0 0 0 0 0 3 3 3 10 23 32 45 48 32 13 3 0 0 0 0 0 0 0 0 0 0 0 6 10 0 0 0 0 0 6 13 39 74 77 81 84 81 74
0 0 0 0 0 0 0 0 3 3 6 29 16 48 45 16 6 0 0 0 0 0 0 0 3 3 0 0 0 0 16 0 0 0 0 3 6 23 32 52 55 55 55
0 0 0 0 0 0 0 0 0 0 3 3 19 32 29 29 13 13 3 0 3 0 0 3 0 3 0 3 0 3 23 0 0 0 0 0 0 0 0 0 3 10 10
0 0 0 0 0 0 0 0 0 0 0 3 6 19 32 35 35 19 13 0 3 3 0 0 0 3 0 0 0 3 0 0 0 0 0 0 0 0 0 0 0 0 0
0 0 0 0 0 0 0 0 0 0 0 0 0 3 13 23 32 42 29 19 3 3 3 0 0 13 3 0 0 0 0 3 0 0 0 0 0 0 0 0 0 0 0
0 0 0 0 0 0 0 0 0 0 0 0 0 0 0 10 19 26 32 32 23 16 3 3 6 19 6 6 6 3 0 0 0 0 0 0 0 0 0 0 0 0 0
0 0 0 0 0 0 0 0 0 0 0 0 0 0 0 0 3 19 23 19 32 10 23 13 10 26 6 3 3 0 0 0 0 0 0 0 0 0 0 0 0 0 0
0 0 0 0 0 0 0 0 0 0 0 0 0 0 0 0 0 0 6 23 32 29 32 19 23 32 10 3 3 0 0 0 0 0 0 0 0 0 0 0 0 0 0
0 0 0 0 0 0 0 0 0 0 0 0 0 0 0 0 0 0 0 3 13 26 16 23 29 23 6 6 3 0 0 0 0 0 0 0 0 0 0 0 0 0 0
0 0 0 0 0 0 0 0 0 0 0 0 0 0 0 0 0 0 0 0 0 3 13 19 29 23 23 10 6 0 0 0 0 0 0 0 0 0 0 0 0 0 0
0 0 0 0 0 0 0 0 0 0 0 0 0 0 0 0 0 0 0 0 0 0 0 10 6 19 23 16 6 0 0 0 0 0 0 0 0 0 0 0 0 0 0
0 0 0 0 0 0 0 0 0 0 0 0 0 0 0 0 0 0 0 0 0 0 0 0 6 13 3 16 13 3 0 0 0 0 0 0 0 0 0 0 0 0 0
0 0 0 0 0 0 0 0 0 0 0 0 0 0 0 0 0 0 0 0 0 0 0 0 0 0 0 0 0 3 0 0 0 0 0 0 0 0 0 0 0 0 0
0 0 0 0 0 0 0 0 0 0 0 0 0 0 0 0 0 0 0 0 0 0 0 0 0 0 0 0 0 0 0 0 0 0 0 0 0 0 0 0 0 0 0

GEFSMA_con_cape1000_042.txt.gz
Probability
97 94 97 97 94 94 84 77 74 77 84 87 90 71 77 81 68 58 68 90 87 94 94 94 100 100 100 100 97 97 94 90 81 74 77 81 90 100 100 100 100 100 100
97 97 90 90 77 71 61 52 55 61 68 71 77 77 71 77 77 61 61 71 90 90 90 94 100 100 100 100 97 97 97 94 84 74 74 68 77 87 100 97 100 94 94
97 94 84 74 68 52 48 42 48 45 52 48 55 65 74 81 81 65 58 61 68 71 81 90 97 100 100 100 100 100 94 84 77 74 52 52 52 74 81 90 100 94 74
74 77 71 52 48 42 29 19 19 23 32 35 35 52 61 61 61 61 55 48 39 26 61 81 90 94 100 100 100 100 87 81 81 71 55 39 35 29 42 58 68 61 23
61 71 65 39 35 32 23 6 10 19 23 23 29 32 42 45 45 35 45 39 35 32 32 35 81 87 90 94 100 100 97 81 74 71 65 48 32 26 16 16 19 16 6
23 29 29 26 16 16 13 3 6 13 6 13 10 10 29 32 29 39 45 29 39 35 32 39 55 52 84 97 97 97 97 90 81 71 68 61 52 42 13 3 3 3 0
10 23 16 16 3 6 6 0 0 0 3 10 6 10 19 19 23 29 23 16 16 26 42 48 48 42 32 71 84 100 94 94 87 71 61 52 55 48 23 3 0 0 0
3 0 13 10 10 3 0 0 3 3 3 3 6 0 3 3 16 3 19 19 16 19 26 32 35 74 48 29 0 71 97 94 94 87 65 48 45 39 19 10 3 0 0
3 3 0 0 10 3 3 3 3 3 3 3 3 0 3 0 0 6 13 13 19 26 23 26 39 48 55 52 32 3 84 90 97 94 81 55 29 23 16 19 16 3 0
0 0 0 0 0 3 3 3 6 3 3 0 3 6 3 3 0 0 3 6 13 16 6 3 6 45 58 55 55 16 23 52 81 94 94 74 39 19 16 16 26 29 10
0 0 0 0 0 0 0 3 3 3 3 0 0 0 0 3 0 0 0 0 3 6 6 10 10 6 26 29 42 26 6 19 39 74 81 74 61 35 29 29 42 45 42
0 0 0 0 0 0 0 0 0 3 0 0 0 0 0 0 3 0 0 0 0 6 10 19 13 13 19 6 6 10 10 3 6 16 19 42 52 55 52 45 42 48 58
0 0 0 0 0 0 0 0 0 0 0 0 0 0 0 0 6 3 6 3 6 6 16 19 13 26 10 23 6 3 6 0 0 0 0 0 6 32 42 52 58 68 71
0 0 0 0 0 0 0 0 0 0 3 0 0 3 3 3 10 6 10 6 0 0 3 3 26 26 26 32 0 0 0 0 0 0 0 0 0 3 6 26 39 48 52
0 0 0 0 0 0 0 0 0 0 0 0 0 0 0 3 3 6 13 13 3 0 0 3 16 35 48 19 0 3 3 0 0 0 0 0 0 0 0 0 0 6 19
0 0 0 0 0 0 0 0 0 0 0 0 0 0 0 3 3 3 6 6 6 0 0 3 13 29 26 0 0 13 3 0 0 0 0 0 0 0 0 0 0 0 0
0 0 0 0 0 0 0 0 0 0 0 0 0 0 0 0 0 3 0 0 6 6 0 13 13 35 16 0 0 3 0 0 0 0 0 0 0 0 0 0 0 0 0
0 0 0 0 0 0 0 0 0 0 0 0 0 0 0 0 0 0 0 0 0 6 6 6 0 13 16 13 6 6 3 0 0 0 0 0 0 0 0 0 0 0 0
0 0 0 0 0 0 0 0 0 0 0 0 0 0 0 0 0 0 0 0 0 0 3 10 3 13 6 0 3 3 0 0 0 0 0 0 0 0 0 0 0 0 0
0 0 0 0 0 0 0 0 0 0 0 0 0 0 0 0 0 0 0 0 0 0 0 0 3 6 0 3 0 0 0 0 0 0 0 0 0 0 0 0 0 0 0
0 0 0 0 0 0 0 0 0 0 0 0 0 0 0 0 0 0 0 0 0 0 0 0 0 3 0 0 0 0 3 0 0 0 0 0 0 0 0 0 0 0 0
0 0 0 0 0 0 0 0 0 0 0 0 0 0 0 0 0 0 0 0 0 0 0 0 0 3 3 0 0 0 0 0 0 0 0 0 0 0 0 0 0 0 0
0 0 0 0 0 0 0 0 0 0 0 0 0 0 0 0 0 0 0 0 0 0 0 0 0 0 0 0 0 0 0 0 0 0 0 0 0 0 0 0 0 0 0
0 0 0 0 0 0 0 0 0 0 0 0 0 0 0 0 0 0 0 0 0 0 0 0 0 0 0 0 0 0 0 0 0 0 0 0 0 0 0 0 0 0 0
0 0 0 0 0 0 0 0 0 0 0 0 0 0 0 0 0 0 0 0 0 0 0 0 0 0 0 0 0 0 0 0 0 0 0 0 0 0 0 0 0 0 0
0 0 0 0 0 0 0 0 0 0 0 0 0 0 0 0 0 0 0 0 0 0 0 0 0 0 0 0 0 0 0 0 0 0 0 0 0 0 0 0 0 0 0

GEFSMA_con_cape1000_048.txt.gz
Probability
55 42 35 26 26 35 32 39 35 35 35 42 48 35 35 39 16 10 6 42 94 97 97 97 97 97 100 100 100 100 100 100 100 97 100 100 100 100 97 94 94 84 77
32 29 26 19 19 26 26 23 23 26 29 26 29 26 29 16 16 13 10 26 81 94 94 90 90 90 94 100 100 100 100 100 100 100 97 97 97 100 100 97 90 74 58
23 23 23 19 16 13 6 16 19 19 16 13 16 16 19 13 10 10 13 16 19 71 84 84 77 81 87 94 100 97 100 100 100 97 97 94 94 87 84 84 77 52 16
6 6 10 6 3 6 3 3 0 0 0 0 0 0 6 6 6 6 6 6 6 16 48 81 84 81 74 71 97 97 100 97 97 97 90 81 77 77 71 58 52 19 0
0 0 0 0 0 0 3 3 3 3 0 0 0 0 0 3 3 3 3 6 3 3 6 26 71 71 74 81 94 97 100 100 94 97 87 81 65 55 42 39 29 6 0
0 0 0 0 0 0 0 0 0 0 0 0 0 0 0 0 0 0 3 3 3 6 6 6 13 32 71 77 90 94 100 97 100 97 87 81 71 48 16 16 3 0 0
0 0 0 0 0 0 0 0 0 0 0 0 0 0 0 0 0 0 0 0 0 3 3 6 6 6 10 48 68 87 94 100 100 97 87 84 71 45 19 3 0 0 0
0 0 0 0 0 0 0 0 0 0 0 0 0 0 0 0 0 0 0 0 0 0 0 3 3 3 3 3 10 39 81 97 100 100 90 81 55 29 19 6 0 0 0
0 0 0 0 0 0 0 0 0 0 0 0 0 0 0 0 0 0 0 0 0 0 0 0 0 3 0 3 3 6 68 77 94 97 97 84 42 23 19 3 0 0 0
0 0 0 0 0 0 0 0 0 0 0 0 0 0 0 0 0 0 0 0 0 0 0 0 0 0 0 0 0 0 13 32 84 97 97 90 52 19 10 10 13 10 0
0 0 0 0 0 0 0 0 0 0 0 0 0 0 0 0 0 0 0 0 0 0 0 0 0 0 0 0 0 0 0 3 16 68 87 90 65 29 16 16 32 26 19
0 0 0 0 0 0 0 0 0 0 0 0 0 0 0 0 0 0 0 0 0 0 0 0 0 0 0 0 0 0 0 0 0 0 6 23 32 39 26 29 35 39 42
0 0 0 0 0 0 0 0 0 0 0 0 0 0 0 0 0 0 0 0 0 0 0 0 0 0 0 0 0 0 0 0 0 0 0 3 10 16 19 23 32 39 45
0 0 0 0 0 0 0 0 0 0 0 0 0 0 0 0 0 0 0 0 0 0 0 0 0 0 0 0 0 0 0 0 0 0 0 0 0 0 0 0 0 10 13
0 0 0 0 0 0 0 0 0 0 0 0 0 0 0 0 0 0 0 0 0 0 0 0 0 0 0 0 0 0 0 0 0 0 0 0 0 0 0 0 0 0 0
0 0 0 0 0 0 0 0 0 0 0 0 0 0 0 0 0 0 0 0 0 0 0 0 0 0 0 0 0 0 0 0 0 0 0 0 0 0 0 0 0 0 0
0 0 0 0 0 0 0 0 0 0 0 0 0 0 0 0 0 0 0 0 0 0 0 0 0 0 0 0 0 0 0 0 0 0 0 0 0 0 0 0 0 0 0
0 0 0 0 0 0 0 0 0 0 0 0 0 0 0 0 0 0 0 0 0 0 0 0 0 0 0 0 0 0 0 0 0 0 0 0 0 0 0 0 0 0 0
0 0 0 0 0 0 0 0 0 0 0 0 0 0 0 0 0 0 0 0 0 0 0 0 0 0 0 0 0 0 0 0 0 0 0 0 0 0 0 0 0 0 0
0 0 0 0 0 0 0 0 0 0 0 0 0 0 0 0 0 0 0 0 0 0 0 0 0 0 0 0 0 0 0 0 0 0 0 0 0 0 0 0 0 0 0
0 0 0 0 0 0 0 0 0 0 0 0 0 0 0 0 0 0 0 0 0 0 0 0 0 0 0 0 0 0 0 0 0 0 0 0 0 0 0 0 0 0 0
0 0 0 0 0 0 0 0 0 0 0 0 0 0 0 0 0 0 0 0 0 0 0 0 0 0 0 0 0 0 0 0 0 0 0 0 0 0 0 0 0 0 0
0 0 0 0 0 0 0 0 0 0 0 0 0 0 0 0 0 0 0 0 0 0 0 0 0 0 0 0 0 0 0 0 0 0 0 0 0 0 0 0 0 0 0
0 0 0 0 0 0 0 0 0 0 0 0 0 0 0 0 0 0 0 0 0 0 0 0 0 0 0 0 0 0 0 0 0 0 0 0 0 0 0 0 0 0 0
0 0 0 0 0 0 0 0 0 0 0 0 0 0 0 0 0 0 0 0 0 0 0 0 0 0 0 0 0 0 0 0 0 0 0 0 0 0 0 0 0 0 0
0 0 0 0 0 0 0 0 0 0 0 0 0 0 0 0 0 0 0 0 0 0 0 0 0 0 0 0 0 0 0 0 0 0 0 0 0 0 0 0 0 0 0

GEFSMA_con_cape1000_054.txt.gz
Probability
42 32 29 26 23 26 32 32 26 29 32 45 42 48 42 52 52 55 48 77 90 97 97 94 100 97 100 100 100 100 100 100 100 100 100 100 100 100 97 97 97 90 84
23 23 23 13 10 13 13 16 19 19 19 23 26 32 29 39 35 35 42 48 77 90 94 94 94 97 94 100 100 100 100 100 100 100 100 100 100 100 94 97 94 90 71
3 10 10 10 6 3 6 10 13 13 19 19 13 16 13 23 29 32 35 29 26 55 81 87 94 94 94 94 97 100 97 100 100 100 100 94 94 94 90 90 87 81 52
3 3 3 3 0 0 0 0 3 6 6 10 13 13 10 6 10 16 19 23 23 16 35 65 81 87 90 87 87 90 100 94 100 97 97 90 84 87 87 81 81 52 19
3 0 0 0 0 0 0 3 3 3 3 6 6 6 6 6 6 6 6 13 16 13 13 13 58 65 74 74 71 81 94 84 81 97 97 97 87 81 68 55 39 16 0
0 0 0 0 0 0 0 0 0 0 0 0 0 0 0 0 0 3 3 3 3 6 10 6 16 39 68 71 77 74 77 77 74 84 94 97 87 61 23 13 13 0 0
0 0 0 0 0 0 0 0 0 0 0 0 0 0 0 0 0 0 0 0 0 0 6 3 10 13 13 42 48 58 65 68 58 68 77 90 84 52 19 6 0 0 0
0 0 0 0 0 0 0 0 0 0 0 0 0 0 0 0 0 0 0 0 0 0 0 0 3 6 10 13 13 32 48 45 48 55 65 77 61 35 10 6 0 0 0
0 0 0 0 0 0 0 0 0 0 0 0 0 0 0 0 0 0 0 0 0 0 0 3 3 3 3 6 6 6 29 32 52 55 58 55 35 10 10 3 3 0 0
0 0 0 0 0 0 0 0 0 0 0 0 0 0 0 0 0 0 0 0 0 0 0 0 3 3 3 6 6 0 6 16 32 58 65 55 45 16 6 6 6 3 0
0 0 0 0 0 0 0 0 0 0 0 0 0 0 0 0 0 0 0 0 0 0 0 0 0 6 0 3 3 3 0 0 3 26 42 42 39 26 19 10 16 16 10
0 0 0 0 0 0 0 0 0 0 0 0 0 0 0 0 0 0 0 0 0 0 0 0 0 0 0 0 0 0 0 0 0 3 3 10 13 23 23 26 29 35 32
0 0 0 0 0 0 0 0 0 0 0 0 0 0 0 0 0 0 0 0 0 0 0 0 0 0 0 3 0 0 0 0 0 0 0 0 3 6 6 13 29 48 45
0 0 0 0 0 0 0 0 0 0 0 0 0 0 0 0 0 0 0 0 0 0 0 0 0 0 0 0 0 0 0 0 0 0 0 0 0 0 0 0 0 6 10
0 0 0 0 0 0 0 0 0 0 0 0 0 0 0 0 0 0 0 0 0 0 0 0 0 0 0 0 0 0 0 0 0 0 0 0 0 0 0 0 0 0 0
0 0 0 0 0 0 0 0 0 0 0 0 0 0 0 0 0 0 0 0 0 0 0 0 0 0 0 0 0 0 0 0 0 0 0 0 0 0 0 0 0 0 0
0 0 0 0 0 0 0 0 0 0 0 0 0 0 0 0 0 0 0 0 0 0 0 0 0 0 0 0 0 0 0 0 0 0 0 0 0 0 0 0 0 0 0
0 0 0 0 0 0 0 0 0 0 0 0 0 0 0 0 0 0 0 0 0 0 0 0 0 0 0 0 0 0 0 0 0 0 0 0 0 0 0 0 0 0 0
0 0 0 0 0 0 0 0 0 0 0 0 0 0 0 0 0 0 0 0 0 0 0 0 0 0 0 0 0 0 0 0 0 0 0 0 0 0 0 0 0 0 0
0 0 0 0 0 0 0 0 0 0 0 0 0 0 0 0 0 0 0 0 0 0 0 0 0 0 0 0 0 0 0 0 0 0 0 0 0 0 0 0 0 0 0
0 0 0 0 0 0 0 0 0 0 0 0 0 0 0 0 0 0 0 0 0 0 0 0 0 0 0 0 0 0 0 0 0 0 0 0 0 0 0 0 0 0 0
0 0 0 0 0 0 0 0 0 0 0 0 0 0 0 0 0 0 0 0 0 0 0 0 0 0 0 0 0 0 0 0 0 0 0 0 0 0 0 0 0 0 0
0 0 0 0 0 0 0 0 0 0 0 0 0 0 0 0 0 0 0 0 0 0 0 0 0 0 0 0 0 0 0 0 0 0 0 0 0 0 0 0 0 0 0
0 0 0 0 0 0 0 0 0 0 0 0 0 0 0 0 0 0 0 0 0 0 0 0 0 0 0 0 0 0 0 0 0 0 0 0 0 0 0 0 0 0 0
0 0 0 0 0 0 0 0 0 0 0 0 0 0 0 0 0 0 0 0 0 0 0 0 0 0 0 0 0 0 0 0 0 0 0 0 0 0 0 0 0 0 0
0 0 0 0 0 0 0 0 0 0 0 0 0 0 0 0 0 0 0 0 0 0 0 0 0 0 0 0 0 0 0 0 0 0 0 0 0 0 0 0 0 0 0

GEFSMA_con_cape1000_060.txt.gz
Probability
52 42 48 48 55 52 55 55 65 65 74 68 71 74 74 81 81 74 77 87 94 97 97 97 97 100 100 100 100 100 100 100 100 100 100 100 100 100 100 94 97 97 87
42 35 42 45 39 32 35 39 42 48 55 61 61 68 71 71 74 84 77 84 87 90 90 94 94 100 100 97 100 100 100 100 100 100 100 100 100 100 100 100 97 100 94
19 23 19 19 19 23 23 19 23 23 29 35 45 48 58 71 71 84 87 74 74 87 87 90 90 94 94 97 94 97 97 100 100 100 100 100 100 100 100 100 100 97 84
10 10 6 6 10 10 10 10 13 16 16 26 26 35 45 52 65 71 71 74 68 55 74 84 87 94 94 87 90 90 90 90 87 97 100 100 100 100 100 97 97 84 45
3 6 3 6 10 10 10 10 10 10 10 16 19 32 29 32 45 42 55 61 65 68 58 74 84 87 87 81 84 94 94 90 90 87 90 94 100 100 90 87 77 65 23
0 0 0 3 0 3 3 3 3 3 3 3 3 3 10 16 29 32 35 39 48 48 58 58 77 71 74 87 84 90 94 94 94 90 84 87 90 87 68 55 35 26 16
0 0 0 0 0 0 0 0 3 3 3 3 6 3 3 6 19 32 26 32 32 35 45 52 58 68 71 58 65 84 94 90 90 87 77 77 84 84 61 32 16 10 3
0 0 0 0 0 0 0 0 0 0 0 0 3 3 6 3 16 3 13 19 19 29 26 26 42 52 55 45 29 48 74 90 90 90 84 71 77 74 48 35 10 3 3
0 0 0 0 0 0 0 0 0 0 0 0 0 0 0 0 0 3 0 3 13 19 26 32 16 32 39 39 39 13 55 74 84 87 81 65 52 35 23 16 10 3 0
0 0 0 0 0 0 0 0 0 0 0 0 0 0 0 0 0 0 0 0 0 3 6 0 3 3 19 16 19 10 13 42 61 77 71 61 39 23 16 16 16 6 3
0 0 0 0 0 0 0 0 0 0 0 0 0 0 0 0 0 0 0 0 0 0 0 0 3 13 3 16 23 10 0 3 16 29 58 48 35 26 19 23 32 29 6
0 0 0 0 0 0 0 0 0 0 0 0 0 0 0 0 0 0 0 0 0 0 0 0 0 3 6 10 3 3 0 0 0 3 6 19 23 23 23 29 29 32 29
0 0 0 0 0 0 0 0 0 0 0 0 0 0 0 0 0 0 0 0 0 0 0 3 3 3 0 3 6 3 0 0 0 0 3 3 6 10 10 10 19 26 29
0 0 0 0 0 0 0 0 0 0 0 0 0 0 0 0 0 0 0 0 0 0 0 0 0 0 3 3 3 0 3 0 0 0 0 0 0 0 0 0 3 3 6
0 0 0 0 0 0 0 0 0 0 0 0 0 0 0 0 0 0 0 0 0 0 0 0 0 0 0 3 0 3 6 0 0 0 0 0 0 0 0 0 0 0 0
0 0 0 0 0 0 0 0 0 0 0 0 0 0 0 0 0 0 0 0 0 0 0 0 0 0 0 0 0 0 3 0 0 0 0 0 0 0 0 0 0 0 0
0 0 0 0 0 0 0 0 0 0 0 0 0 0 0 0 0 0 0 0 0 0 0 0 0 0 0 0 0 3 3 0 3 0 0 0 0 0 0 0 0 0 0
0 0 0 0 0 0 0 0 0 0 0 0 0 0 0 0 0 0 0 0 0 0 0 0 0 0 0 0 0 0 0 0 3 0 0 0 0 0 0 0 0 0 0
0 0 0 0 0 0 0 0 0 0 0 0 0 0 0 0 0 0 0 0 0 0 0 0 0 0 0 0 0 0 0 0 0 0 0 0 0 0 0 0 0 0 0
0 0 0 0 0 0 0 0 0 0 0 0 0 0 0 0 0 0 0 0 0 0 0 0 0 0 0 0 0 3 3 3 0 0 0 0 0 0 0 0 0 0 0
0 0 0 0 0 0 0 0 0 0 0 0 0 0 0 0 0 0 0 0 0 0 0 0 0 0 0 0 0 0 3 3 6 0 3 0 0 0 0 0 0 0 0
0 0 0 0 0 0 0 0 0 0 0 0 0 0 0 0 0 0 0 0 0 0 0 0 0 0 0 0 0 0 0 3 0 3 0 0 0 0 0 0 0 0 0
0 0 0 0 0 0 0 0 0 0 0 0 0 0 0 0 0 0 0 0 0 0 0 0 0 0 0 0 0 0 0 0 0 6 3 3 0 3 0 0 0 0 0
0 0 0 0 0 0 0 0 0 0 0 0 0 0 0 0 0 0 0 0 0 0 0 0 0 0 0 0 0 0 0 0 0 3 0 3 0 0 0 0 0 0 0
0 0 0 0 0 0 0 0 0 0 0 0 0 0 0 0 0 0 0 0 0 0 0 0 0 0 0 0 0 0 0 0 0 0 3 0 0 0 0 0 0 0 0
0 0 0 0 0 0 0 0 0 0 0 0 0 0 0 0 0 0 0 0 0 0 0 0 0 0 0 0 0 0 0 0 0 0 0 0 0 0 0 0 0 0 0

GEFSMA_con_cape1000_066.txt.gz
Probability
45 45 61 71 48 45 52 39 39 35 45 52 52 48 55 68 74 71 71 81 84 90 94 100 97 97 97 100 100 100 100 100 100 100 100 100 100 100 100 100 90 94 81
35 32 32 58 45 45 42 39 32 39 32 35 35 42 52 55 61 77 68 84 84 90 97 97 100 100 97 100 100 100 100 100 100 100 100 100 100 100 100 100 97 97 87
19 26 29 35 32 29 26 32 13 19 13 13 26 35 42 55 65 68 68 77 84 87 94 100 100 100 100 97 97 100 100 100 100 100 100 100 97 97 100 100 100 97 77
10 16 13 16 26 19 26 29 19 13 10 10 16 26 32 48 52 58 58 61 68 68 90 94 100 100 100 100 100 100 100 100 100 100 100 100 100 97 97 97 100 97 65
0 3 10 13 13 13 13 3 6 3 3 6 6 6 23 29 45 39 42 65 74 74 74 77 100 94 94 94 94 100 100 100 100 100 100 100 100 100 94 87 84 65 35
0 0 0 3 10 6 10 10 6 6 6 6 6 3 10 16 26 29 52 48 74 74 74 74 74 81 90 94 97 97 97 100 100 100 100 100 100 100 71 55 52 42 19
0 0 0 0 0 0 0 3 3 3 6 10 6 3 0 0 6 19 35 45 45 58 65 65 74 61 65 87 90 97 97 97 97 100 100 94 94 97 61 52 42 16 6
0 0 0 0 0 0 0 0 3 0 0 0 3 0 0 3 13 0 23 45 32 45 39 39 61 58 65 61 52 71 94 94 97 94 90 90 90 84 58 48 19 3 3
0 0 0 0 3 0 0 0 0 0 0 0 0 0 0 0 0 3 10 16 35 39 39 32 26 45 39 45 55 26 84 87 94 94 90 94 87 74 58 45 23 3 0
0 0 0 0 0 0 0 0 0 0 0 0 0 0 0 0 0 0 0 3 13 16 19 10 13 26 35 42 35 26 26 58 77 84 90 90 90 61 48 45 52 26 3
0 0 0 0 0 0 0 0 0 0 0 0 0 0 0 0 0 0 0 0 0 3 13 16 16 13 16 19 23 13 3 10 32 55 71 81 81 74 55 55 68 65 42
0 0 0 0 0 0 0 0 0 0 0 0 0 0 0 0 0 0 0 0 0 0 3 10 10 13 13 13 3 0 0 0 0 3 6 42 58 58 68 65 68 74 65
0 0 0 0 0 0 0 0 0 0 0 0 0 0 0 0 0 0 0 0 0 0 0 3 6 10 0 13 16 0 0 0 0 0 0 0 3 19 32 39 58 65 58
0 0 0 0 0 0 0 0 0 0 0 0 0 0 0 0 0 0 0 0 0 0 0 0 3 3 3 13 3 0 0 0 0 0 0 0 0 0 0 3 10 23 16
0 0 0 0 0 0 0 0 0 0 0 0 0 0 0 0 0 0 0 0 0 0 0 0 0 3 3 3 0 0 0 0 0 0 0 0 0 0 0 0 0 0 0
0 3 3 0 0 0 0 0 0 0 0 0 0 0 0 0 0 0 0 0 0 0 0 0 0 0 0 0 0 0 0 0 0 0 0 0 0 0 0 0 0 0 0
0 0 3 0 0 0 0 0 0 0 0 0 0 0 0 0 0 0 0 0 0 0 0 0 0 0 0 0 0 0 0 0 0 0 0 0 0 0 0 0 0 0 0
0 0 0 0 0 0 0 0 0 0 0 0 0 0 0 0 0 0 0 0 0 0 0 0 0 0 0 0 0 0 0 0 0 0 0 0 0 0 0 0 0 0 0
0 0 0 0 0 0 0 0 0 0 0 0 0 0 0 0 0 0 0 0 0 0 0 0 0 0 0 0 0 0 0 0 0 0 0 0 0 0 0 0 0 0 0
0 0 0 0 0 0 0 0 0 0 0 0 0 0 0 0 0 0 0 0 0 0 0 0 0 0 0 0 0 0 0 0 0 0 0 0 0 0 0 0 0 0 0
0 0 0 0 0 0 0 0 0 0 0 0 0 0 0 0 0 0 0 0 0 0 0 0 0 0 0 0 0 0 0 0 0 0 0 0 0 0 0 0 0 0 0
0 0 0 0 0 0 0 0 0 0 0 0 0 0 0 0 0 0 0 0 0 0 0 0 0 0 0 0 0 0 0 0 0 0 0 0 0 0 0 0 0 0 0
6 6 3 0 0 0 0 0 0 0 0 0 0 0 0 0 0 0 0 0 0 0 0 0 0 0 0 0 0 0 0 0 0 0 0 0 0 0 0 0 0 0 0
6 6 3 3 0 0 0 0 0 0 0 0 0 0 0 0 0 0 0 0 0 0 0 0 0 0 0 0 0 0 0 0 0 0 0 0 0 0 0 0 0 0 0
6 6 0 0 0 0 0 0 0 0 0 0 0 0 0 0 0 0 0 0 0 0 0 0 0 0 0 0 0 0 0 0 0 0 0 0 0 0 0 0 0 0 0
3 0 0 3 0 0 0 0 0 0 0 0 0 0 0 0 0 0 0 0 0 0 0 0 0 0 0 0 0 0 0 0 0 0 0 0 0 0 0 0 0 0 0

GEFSMA_con_cape1000_072.txt.gz
Probability
3 6 3 6 6 6 6 6 10 13 13 16 16 19 16 19 23 6 10 58 68 77 90 77 94 97 97 100 100 100 100 100 100 100 100 100 97 94 84 81 84 77 71
0 0 0 0 0 0 0 3 3 3 6 6 6 10 13 16 16 10 10 19 61 71 74 74 90 97 97 97 100 100 100 100 100 100 100 100 97 97 97 81 84 77 71
0 0 0 0 0 0 0 0 3 3 3 3 3 3 6 6 6 6 6 16 19 58 71 77 84 90 94 94 100 100 100 100 100 100 100 100 97 97 100 90 77 74 32
0 0 0 0 0 0 0 0 0 3 3 0 0 0 0 0 0 6 3 6 13 19 45 84 90 87 90 94 97 100 100 100 100 100 100 100 97 94 100 90 74 55 10
0 0 0 0 0 0 0 0 0 0 0 0 0 0 0 0 0 0 0 3 3 10 10 29 74 81 81 84 87 97 100 100 97 97 100 100 100 94 87 77 61 42 10
0 0 0 0 0 0 0 0 0 0 0 0 0 0 0 0 0 0 0 0 0 0 10 10 19 39 81 87 87 90 97 97 97 97 97 100 100 100 77 65 55 32 6
0 0 0 0 0 0 0 0 0 0 0 0 0 0 0 0 0 0 0 0 0 0 0 0 6 13 23 61 68 87 84 94 97 100 100 97 100 100 74 48 42 19 6
0 0 0 0 0 0 0 0 0 0 0 0 0 0 0 0 0 0 0 0 0 0 0 0 0 6 6 10 10 45 87 94 87 97 97 97 97 97 81 48 32 19 6
0 0 0 0 0 0 0 0 0 0 0 0 0 0 0 0 0 0 0 0 0 0 0 0 0 3 3 6 6 6 45 58 84 90 90 94 87 87 74 55 39 23 10
0 0 0 0 0 0 0 0 0 0 0 0 0 0 0 0 0 0 0 0 0 0 0 0 0 0 0 3 6 6 16 32 39 71 74 97 94 81 71 65 68 42 23
0 0 0 0 0 0 0 0 0 0 0 0 0 0 0 0 0 0 0 0 0 0 0 0 0 0 0 0 0 3 3 6 10 19 45 61 77 77 81 81 87 81 55
0 0 0 0 0 0 0 0 0 0 0 0 0 0 0 0 0 0 0 0 0 0 0 0 0 0 0 0 0 3 3 0 0 0 0 6 29 45 68 77 87 84 77
0 0 0 0 0 0 0 0 0 0 0 0 0 0 0 0 0 0 0 0 0 0 0 0 0 0 0 0 0 0 0 0 0 0 0 0 0 3 19 35 52 71 77
0 0 0 0 0 0 0 0 0 0 0 0 0 0 0 0 0 0 0 0 0 0 0 0 0 0 0 0 0 0 0 0 0 0 0 0 0 0 0 6 13 23 29
0 0 0 0 0 0 0 0 0 0 0 0 0 0 0 0 0 0 0 0 0 0 0 0 0 0 0 0 0 0 0 0 0 0 0 0 0 0 0 0 0 0 0
0 0 0 0 0 0 0 0 0 0 0 0 0 0 0 0 0 0 0 0 0 0 0 0 0 0 0 0 0 0 0 0 0 0 0 0 0 0 0 0 0 0 0
0 0 0 0 0 0 0 0 0 0 0 0 0 0 0 0 0 0 0 0 0 0 0 0 0 0 0 0 0 0 0 0 0 0 0 0 0 0 0 0 0 0 0
0 0 0 0 0 0 0 0 0 0 0 0 0 0 0 0 0 0 0 0 0 0 0 0 0 0 0 0 0 0 0 0 0 0 0 0 0 0 0 0 0 0 0
0 0 0 0 0 0 0 0 0 0 0 0 0 0 0 0 0 0 0 0 0 0 0 0 0 0 0 0 0 0 0 0 0 0 0 0 0 0 0 0 0 0 0
0 0 0 0 0 0 0 0 0 0 0 0 0 0 0 0 0 0 0 0 0 0 0 0 0 0 0 0 0 0 0 0 0 0 0 0 0 0 0 0 0 0 0
0 0 0 0 0 0 0 0 0 0 0 0 0 0 0 0 0 0 0 0 0 0 0 0 0 0 0 0 0 0 0 0 0 0 0 0 0 0 0 0 0 0 0
0 0 0 0 0 0 0 0 0 0 0 0 0 0 0 0 0 0 0 0 0 0 0 0 0 0 0 0 0 0 0 0 0 0 0 0 0 0 0 0 0 0 0
0 0 0 0 0 0 0 0 0 0 0 0 0 0 0 0 0 0 0 0 0 0 0 0 0 0 0 0 0 0 0 0 0 0 0 0 0 0 0 0 0 0 0
0 0 0 0 0 0 0 0 0 0 0 0 0 0 0 0 0 0 0 0 0 0 0 0 0 0 0 0 0 0 0 0 0 0 0 0 0 0 0 0 0 0 0
0 0 0 0 0 0 0 0 0 0 0 0 0 0 0 0 0 0 0 0 0 0 0 0 0 0 0 0 0 0 0 0 0 0 0 0 0 0 0 0 0 0 0
0 0 0 0 0 0 0 0 0 0 0 0 0 0 0 0 0 0 0 0 0 0 0 0 0 0 0 0 0 0 0 0 0 0 0 0 0 0 0 0 0 0 0

GEFSMA_con_cape1000_078.txt.gz
Probability
0 0 0 0 3 3 3 6 10 19 16 19 19 26 19 16 13 16 26 42 71 81 87 84 94 90 94 97 97 100 100 100 100 100 100 100 94 81 61 61 61 65 68
0 0 0 0 0 0 0 0 3 3 6 10 13 13 10 10 13 16 13 19 45 65 81 84 81 87 87 87 97 97 100 100 100 100 100 100 100 97 74 65 65 68 65
0 0 0 0 0 0 0 0 0 0 3 3 0 3 6 6 3 6 10 13 16 26 65 81 84 81 84 81 87 87 100 100 100 100 100 100 100 100 100 81 74 68 45
0 0 0 0 0 0 0 0 0 0 0 0 0 0 0 0 0 3 3 6 10 16 23 52 77 74 65 61 68 84 87 100 100 100 100 100 97 97 100 84 77 65 39
0 0 0 0 0 0 0 0 0 0 0 0 0 0 0 0 0 0 0 0 6 10 13 16 45 68 42 42 58 61 68 94 100 100 100 100 97 97 97 84 74 58 26
0 0 0 0 0 0 0 0 0 0 0 0 0 0 0 0 0 0 0 0 0 6 10 13 19 16 29 55 58 68 61 77 87 87 87 100 97 94 94 84 68 48 26
0 0 0 0 0 0 0 0 0 0 0 0 0 0 0 0 0 0 0 0 0 0 6 3 10 13 13 23 29 39 45 52 71 74 81 90 100 97 94 77 61 32 23
0 0 0 0 0 0 0 0 0 0 0 0 0 0 0 0 0 0 0 0 0 0 0 0 6 10 13 19 16 19 45 52 42 58 74 81 94 84 84 81 58 26 16
0 0 0 0 0 0 0 0 0 0 0 0 0 0 0 0 0 0 0 0 0 0 0 0 0 3 3 6 16 3 23 39 45 48 61 65 58 61 65 65 65 32 19
0 0 0 0 0 0 0 0 0 0 0 0 0 0 0 0 0 0 0 0 0 0 0 0 0 0 0 0 3 0 0 16 26 48 48 55 45 42 42 58 65 61 29
0 0 0 0 0 0 0 0 0 0 0 0 0 0 0 0 0 0 0 0 0 0 0 0 0 0 0 0 0 0 0 0 3 6 23 32 32 19 39 52 61 68 58
0 0 0 0 0 0 0 0 0 0 0 0 0 0 0 0 0 0 0 0 0 0 0 0 0 0 0 0 0 0 0 0 0 0 0 0 10 16 16 35 45 61 71
0 0 0 0 0 0 0 0 0 0 0 0 0 0 0 0 0 0 0 0 0 0 0 0 0 0 0 0 0 0 0 0 0 0 0 0 0 3 6 10 23 32 52
0 0 0 0 0 0 0 0 0 0 0 0 0 0 0 0 0 0 0 0 0 0 0 0 0 0 0 0 0 0 0 0 0 0 0 0 0 0 0 0 0 3 3
0 0 0 0 0 0 0 0 0 0 0 0 0 0 0 0 0 0 0 0 0 0 0 0 0 0 0 0 0 0 0 0 0 0 0 0 0 0 0 0 0 0 0
0 0 0 0 0 0 0 0 0 0 0 0 0 0 0 0 0 0 0 0 0 0 0 0 0 0 0 0 0 0 0 0 0 0 0 0 0 0 0 0 0 0 0
0 0 0 0 0 0 0 0 0 0 0 0 0 0 0 0 0 0 0 0 0 0 0 0 0 0 0 0 0 0 0 0 0 0 0 0 0 0 0 0 0 0 0
0 0 0 0 0 0 0 0 0 0 0 0 0 0 0 0 0 0 0 0 0 0 0 0 0 0 0 0 0 0 0 0 0 0 0 0 0 0 0 0 0 0 0
0 0 0 0 0 0 0 0 0 0 0 0 0 0 0 0 0 0 0 0 0 0 0 0 0 0 0 0 0 0 0 0 0 0 0 0 0 0 0 0 0 0 0
0 0 0 0 0 0 0 0 0 0 0 0 0 0 0 0 0 0 0 0 0 0 0 0 0 0 0 0 0 0 0 0 0 0 0 0 0 0 0 0 0 0 0
0 0 0 0 0 0 0 0 0 0 0 0 0 0 0 0 0 0 0 0 0 0 0 0 0 0 0 0 0 0 0 0 0 0 0 0 0 0 0 0 0 0 0
0 0 0 0 0 0 0 0 0 0 0 0 0 0 0 0 0 0 0 0 0 0 0 0 0 0 0 0 0 0 0 0 0 0 0 0 0 0 0 0 0 0 0
0 0 0 0 0 0 0 0 0 0 0 0 0 0 0 0 0 0 0 0 0 0 0 0 0 0 0 0 0 0 0 0 0 0 0 0 0 0 0 0 0 0 0
0 0 0 0 0 0 0 0 0 0 0 0 0 0 0 0 0 0 0 0 0 0 0 0 0 0 0 0 0 0 0 0 0 0 0 0 0 0 0 0 0 0 0
0 0 0 0 0 0 0 0 0 0 0 0 0 0 0 0 0 0 0 0 0 0 0 0 0 0 0 0 0 0 0 0 0 0 0 0 0 0 0 0 0 0 0
0 0 0 0 0 0 0 0 0 0 0 0 0 0 0 0 0 0 0 0 0 0 0 0 0 0 0 0 0 0 0 0 0 0 0 0 0 0 0 0 0 0 0